Barcelona, Spain

9:13 AM CEST on October 19, 2018 (GMT +0200)
El Prat

Weather History for LEBL - February, 2018

Change the Weather History Date:

Friday, February 23, 2018

  Actual Average Record
Temperature  
Mean Temperature 45 °F -  
Max Temperature 51 °F 58 °F 66 °F (2015)
Min Temperature 39 °F 44 °F 33 °F (2013)
Degree Days  
Heating Degree Days 20    
Moisture  
Dew Point 34 °F    
Average Humidity 63    
Maximum Humidity 87    
Minimum Humidity 34    
Precipitation  
Precipitation 0.01 in 0.06 in - ()
Sea Level Pressure  
Sea Level Pressure 29.73 in    
Wind  
Wind Speed 7 mph ()    
Max Wind Speed 15 mph    
Max Gust Speed 29 mph    
Visibility 6.8 miles    
Events Rain    
Averages and records for this station are not official NWS values.
T = Trace of Precipitation, MM = Missing Value Source: Averaged Metar Reports

Daily Weather History Graph

Daily Weather History Graph

Search for Another Location

Airport or City:

Astronomy

Feb. 23, 2018 Rise Set
Actual Time 7:35 AM CET 6:35 PM CET
Civil Twilight 7:07 AM CET 7:03 PM CET
Nautical Twilight 6:35 AM CET 7:35 PM CET
Astronomical Twilight 6:03 AM CET 8:07 PM CET
Moon 12:00 PM CET (2/23) 1:31 AM CET (2/23)
Length of Visible Light 11h 55m
Length of Day
10h 59m
First Quarter, 51% of the Moon is Illuminated
Feb 23
First Quarter
Mar 2
Full
Mar 9
Last Quarter
Mar 17
New
Mar 24
First Quarter

Hourly Weather History & Observations

Time (CET) Temp. Windchill Dew Point Humidity Pressure Visibility Wind Dir Wind Speed Gust Speed Precip Events Conditions
12:00 AM 47 °F - 34 °F 50% 29.76 in 9 mi East 4.6 mph - -   Clear
12:00 AM 46.4 °F 45.2 °F 33.8 °F 62% 29.74 in 6.2 mi East 3.5 mph - N/A   Scattered Clouds
12:30 AM 46.4 °F 44.3 °F 33.8 °F 62% 29.74 in 6.2 mi East 4.6 mph - N/A   Scattered Clouds
1:00 AM 46 °F - 34 °F 53% 29.75 in 9 mi East 4.6 mph - -   Partly Cloudy
1:00 AM 46.4 °F 44.3 °F 33.8 °F 62% 29.74 in 6.2 mi East 4.6 mph - N/A   Scattered Clouds
1:30 AM 44.6 °F 42.2 °F 37.4 °F 76% 29.74 in 5.0 mi NNW 4.6 mph - N/A   Drizzle
2:00 AM 43 °F - 36 °F 68% 29.75 in 5 mi North 5.8 mph - - Rain Light Drizzle
2:00 AM 42.8 °F 38.6 °F 35.6 °F 76% 29.74 in 5.6 mi NNW 6.9 mph - N/A   Scattered Clouds
2:30 AM 41.0 °F 36.4 °F 33.8 °F 76% 29.71 in 5.6 mi NNW 6.9 mph - N/A   Partly Cloudy
3:00 AM 42 °F - 34 °F 65% 29.74 in 6 mi North 9.2 mph - -   Mist
3:00 AM 41.0 °F 34.7 °F 33.8 °F 76% 29.71 in 5.6 mi NNW 10.4 mph - N/A   Scattered Clouds
3:30 AM 42.8 °F 37.0 °F 33.8 °F 70% 29.71 in 5.6 mi NNW 10.4 mph - N/A   Mostly Cloudy
4:00 AM 42 °F - 36 °F 73% 29.73 in 5 mi North 6.9 mph - - Rain Drizzle
4:00 AM 41.0 °F 35.8 °F 35.6 °F 81% 29.71 in 5.0 mi NW 8.1 mph - N/A   Light Drizzle
4:30 AM 42.8 °F 39.3 °F 37.4 °F 81% 29.71 in 5.6 mi NW 5.8 mph - N/A   Light Drizzle
5:00 AM 43 °F - 39 °F 80% 29.72 in 5 mi West 5.8 mph - - Rain Light Rain
5:00 AM 42.8 °F 41.1 °F 39.2 °F 87% 29.71 in 5.6 mi NW 3.5 mph - N/A   Scattered Clouds
5:30 AM 41.0 °F 38.0 °F 37.4 °F 87% 29.71 in 5.6 mi NW 4.6 mph - N/A   Partly Cloudy
6:00 AM 41.0 °F 37.1 °F 37.4 °F 87% 29.71 in 5.0 mi NW 5.8 mph - N/A   Scattered Clouds
6:30 AM 41.0 °F 38.0 °F 37.4 °F 87% 29.71 in 5.0 mi NNW 4.6 mph - N/A   Scattered Clouds
7:00 AM 42 °F - 38 °F 79% 29.73 in 6 mi North 6.9 mph - -   Partly Cloudy
7:00 AM 41.0 °F 38.0 °F 37.4 °F 87% 29.71 in 6.2 mi NNW 4.6 mph - N/A   Mostly Cloudy
7:30 AM 41.0 °F 36.4 °F 37.4 °F 87% 29.71 in 6.2 mi NNW 6.9 mph - N/A   Scattered Clouds
8:00 AM 41 °F - 36 °F 77% 29.74 in 7 mi North 11.5 mph - -   Clear
8:00 AM 41.0 °F 35.2 °F 35.6 °F 81% 29.71 in 6.2 mi NNW 9.2 mph - N/A   Scattered Clouds
8:30 AM 39.2 °F 31.6 °F 32.0 °F 75% 29.74 in 6.2 mi NNW 12.7 mph 25.3 mph N/A   Scattered Clouds
9:00 AM 41 °F - 31 °F 57% 29.75 in 9 mi North 12.7 mph - -  
9:00 AM 39.2 °F 31.2 °F 30.2 °F 70% 29.74 in 6.2 mi NNW 13.8 mph - N/A   Scattered Clouds
9:30 AM 41.0 °F 33.1 °F 30.2 °F 65% 29.74 in 6.2 mi NNW 15.0 mph 28.8 mph N/A   Partly Cloudy
10:00 AM 41.0 °F 33.1 °F 28.4 °F 61% 29.74 in 6.2 mi NNW 15.0 mph - N/A   Scattered Clouds
10:30 AM 42.8 °F 35.8 °F 28.4 °F 57% 29.74 in 6.2 mi NNW 13.8 mph - N/A   Partly Cloudy
11:00 AM 44 °F - 29 °F 44% 29.76 in 10 mi North 12.7 mph - -  
11:00 AM 42.8 °F 36.2 °F 28.4 °F 57% 29.74 in 6.2 mi NNW 12.7 mph 24.2 mph N/A   Partly Cloudy
11:30 AM 44.6 °F 39.2 °F 28.4 °F 53% 29.74 in 6.2 mi NW 10.4 mph - N/A   Partly Cloudy
12:00 PM 47 °F - 33 °F 45% 29.76 in 10 mi North 3.5 mph - -  
12:00 PM 46.4 °F 42.4 °F 33.8 °F 62% 29.74 in 6.2 mi NNW 8.1 mph - N/A   Partly Cloudy
12:30 PM 50.0 °F - 37.4 °F 62% 29.74 in 6.2 mi WSW 4.6 mph - N/A   Partly Cloudy
1:00 PM 48.2 °F - 37.4 °F 66% 29.74 in 6.2 mi SSW 9.2 mph - N/A   Partly Cloudy
1:30 PM 48.2 °F - 37.4 °F 66% 29.71 in 6.2 mi South 10.4 mph - N/A   Partly Cloudy
2:00 PM 50.0 °F - 33.8 °F 54% 29.71 in 6.2 mi South 10.4 mph - N/A   Partly Cloudy
2:30 PM 50.0 °F - 30.2 °F 47% 29.71 in 6.2 mi SSW 11.5 mph - N/A   Partly Cloudy
3:00 PM 51 °F - 31 °F 34% 29.72 in 12 mi SW 10.4 mph - -  
3:00 PM 50.0 °F - 32.0 °F 50% 29.71 in 6.2 mi SSW 11.5 mph - N/A   Partly Cloudy
3:30 PM 50.0 °F - 32.0 °F 50% 29.71 in 6.2 mi SSW 10.4 mph - N/A   Partly Cloudy
4:00 PM 51 °F - 33 °F 37% 29.72 in 11 mi SSW 9.2 mph - -   Scattered Clouds
4:00 PM 50.0 °F - 32.0 °F 50% 29.71 in 6.2 mi South 9.2 mph - N/A   Partly Cloudy
4:30 PM 50.0 °F - 32.0 °F 50% 29.71 in 6.2 mi South 8.1 mph - N/A   Partly Cloudy
5:00 PM 51 °F - 32 °F 35% 29.72 in 13 mi South 8.1 mph - -  
5:00 PM 50.0 °F - 32.0 °F 50% 29.71 in 6.2 mi SSE 8.1 mph - N/A   Partly Cloudy
5:30 PM 50.0 °F - 32.0 °F 50% 29.71 in 6.2 mi SSE 6.9 mph - N/A   Partly Cloudy
6:00 PM 50 °F - 33 °F 41% 29.73 in 13 mi SSE 8.1 mph - -  
6:00 PM 50.0 °F - 33.8 °F 54% 29.71 in 6.2 mi SE 5.8 mph - N/A   Partly Cloudy
6:30 PM 50.0 °F - 33.8 °F 54% 29.71 in 6.2 mi SE 4.6 mph - N/A   Partly Cloudy
7:00 PM 49 °F - 34 °F 43% 29.75 in 9 mi SE 5.8 mph - -   Scattered Clouds
7:00 PM 50.0 °F - 33.8 °F 54% 29.74 in 6.2 mi SE 3.5 mph - N/A   Partly Cloudy
7:30 PM 48.2 °F - 33.8 °F 58% 29.74 in 6.2 mi East 3.5 mph - N/A   Partly Cloudy
8:00 PM 49 °F - 33 °F 43% 29.76 in 15 mi South 2.3 mph - -  
8:00 PM 48.2 °F - 33.8 °F 58% 29.74 in 6.2 mi Variable 2.3 mph - N/A   Partly Cloudy
8:30 PM 44.6 °F - 33.8 °F 66% 29.74 in 6.2 mi Calm Calm - N/A   Partly Cloudy
9:00 PM 44 °F - 34 °F 59% 29.76 in 9 mi NW 1.2 mph - -  
9:00 PM 42.8 °F 39.3 °F 33.8 °F 70% 29.74 in 6.2 mi NW 5.8 mph - N/A   Partly Cloudy
9:30 PM 42.8 °F 41.1 °F 33.8 °F 70% 29.74 in 6.2 mi NW 3.5 mph - N/A   Partly Cloudy
10:00 PM 43 °F - 34 °F 61% 29.77 in 7 mi North 8.1 mph - -   Scattered Clouds
10:00 PM 42.8 °F 40.1 °F 33.8 °F 70% 29.77 in 6.2 mi NW 4.6 mph - N/A   Partly Cloudy
10:30 PM 41.0 °F 36.4 °F 33.8 °F 76% 29.77 in 6.2 mi NW 6.9 mph - N/A   Scattered Clouds
11:00 PM 41.0 °F 35.8 °F 33.8 °F 76% 29.77 in 6.2 mi NNW 8.1 mph - N/A   Partly Cloudy
11:30 PM 41.0 °F 35.8 °F 33.8 °F 76% 29.74 in 6.2 mi NW 8.1 mph - N/A   Partly Cloudy